Regional Weather Roundup
Issued by NWS Sterling, VA

Home | Current Version | Previous Version | Text Only | Print | Product List | Glossary On
Versions: 1 2 3 4 5 6 7 8 9 10 11 12 13 14 15 16 17 18 19 20 21 22 23 24 25 26 27 28 29 30 31 32 33 34 35 36 37 38 39 40 41 42 43 44 45 46 47 48 49 50
000
ASUS41 KLWX 182111
RWRLWX

REGIONAL WEATHER ROUNDUP
NATIONAL WEATHER SERVICE BALTIMORE MD/WASHINGTON DC
500 PM EDT WED OCT 18 2017

Note: "FAIR" indicates few or no clouds below 12,000 feet
with no significant weather and/or obstructions to visibility.
 TC=TEMPERATURE CELSIUS

 * =Non NWS site. Station does not report precipitation (e.g. rain,
    snow, etc.), thunder, or fog.

DCZ001-MDZ009-015-VAZ040>042-051-053>054-182200-
WASHINGTON METRO

CITY           SKY/WX    TMP DP  RH WIND       PRES   REMARKS
WASHINGTON NAT SUNNY     69  46  43 S8        30.31F
DULLES         MOSUNNY   69  43  38 SW8       30.30F
ANDREWS AFB    SUNNY     68  43  39 S6        30.30F
FT BELVOIR     SUNNY     68  41  36 S6        30.31F
COLLEGE PARK*  SUNNY     69  40  35 SW3       30.30F
LEESBURG*      SUNNY     72  45  37 S7        30.31S
MANASSAS*      SUNNY     70  40  33 SW5       30.30F
GAITHERSBURG*  SUNNY     70  43  37 SW6       30.31F

$$

MDZ006>007-011-014-182200-
BALTIMORE METRO

CITY           SKY/WX    TMP DP  RH WIND       PRES   REMARKS
BWI AIRPORT    MOSUNNY   70  43  37 SW5       30.29F
MARTIN STATE   SUNNY     66  52  59 SE7       30.31F
ANNAPOLIS      SUNNY     68  50  52 SE8       30.30F
FORT MEADE*    SUNNY     64  46  52 CALM      30.32F

$$

MDZ012-015-019>023-182200-
MARYLAND EASTERN SHORE

CITY           SKY/WX    TMP DP  RH WIND       PRES   REMARKS
OCEAN CITY     SUNNY     64  47  53 S5        30.32F
SALISBURY      SUNNY     66  49  54 W9        30.31F
CAMBRIDGE*     SUNNY     66  43  42 S7        30.32F
EASTON*        SUNNY     68  39  34 SW7       30.35F

$$

MDZ017>025-182200-
SOUTHERN MARYLAND

CITY           SKY/WX    TMP DP  RH WIND       PRES   REMARKS
PATUXENT RIVER NOT AVBL
ST INIGOES     SUNNY     67  46  47 SE5       30.32F
LEONARDTOWN*   NOT AVBL

$$

MDZ003>005-182200-
NORTH CENTRAL MARYLAND

CITY           SKY/WX    TMP DP  RH WIND       PRES   REMARKS
FREDERICK*     SUNNY     72  36  26 SW6       30.32
HAGERSTOWN APT SUNNY     70  41  34 S10       30.28F
WESTMINSTER*   SUNNY     72  46  40 SW9       30.29F

$$

MDZ501>502-182200-
WESTERN MARYLAND

CITY           SKY/WX    TMP DP  RH WIND       PRES   REMARKS
OAKLAND*       SUNNY     61  36  39 SE9       30.27F
CUMBERLAND*    SUNNY     72  41  33 SE3       30.30F

$$

VAZ025>031-182200-
SHENANDOAH VALLEY

CITY           SKY/WX    TMP DP  RH WIND       PRES   REMARKS
WINCHESTER*    SUNNY     66  39  37 S5        30.29F
FRONT ROYAL*   SUNNY     70  41  35 S5        30.28S
LURAY*         SUNNY     70  36  28 S8        30.29F
NEW MARKET*    SUNNY     70  33  25 SW8       30.28F
STAUNTON*      SUNNY     67  39  35 SE5       30.32F
WAYNESBORO*    SUNNY     65  40  40 SE8       30.32S

$$

WVZ021-048>050-054>055-182200-
EASTERN WEST VIRGINIA PANHANDLE

CITY           SKY/WX    TMP DP  RH WIND       PRES   REMARKS
MARTINSBURG    SUNNY     68  41  37 S6        30.28F
PETERSBURG*    SUNNY     71  40  32 E5        30.26F

$$

VAZ036>039-050-182200-
CENTRAL FOOTHILLS

CITY           SKY/WX    TMP DP  RH WIND       PRES   REMARKS
CHARLOTTESVILL SUNNY     69  40  34 S7        30.31F
CULPEPER*      SUNNY     71  35  27 S5        30.31F
ORANGE*        SUNNY     68  39  34 CALM      30.31S
GORDONSVILLE*  SUNNY     69  41  36 SW6       30.31F
WARRENTON*     SUNNY     70  35  27 S3        30.30F

$$

VAZ055>057-182200-
NORTH AND CENTRAL PIEDMONT

CITY           SKY/WX    TMP DP  RH WIND       PRES   REMARKS
FREDERICKSBRG* SUNNY     70  43  36 S5        30.30F
STAFFORD*      SUNNY     69  40  35 S5        30.35F

$$

NCZ024-NYZ072-PAZ021-071-VAZ022-071-182200-
OTHER REGIONAL OBSERVATIONS

CITY           SKY/WX    TMP DP  RH WIND       PRES   REMARKS
NEW YORK CITY  SUNNY     69  47  45 VRB5      30.27F
PHILADELPHIA   SUNNY     71  45  39 SW12      30.28F
PITTSBURGH     MOSUNNY   70  39  32 S6        30.23F
ROANOKE        SUNNY     67  40  37 SE8       30.33F
RICHMOND       MOSUNNY   67  40  37 S6        30.32F
RALEIGH        MOSUNNY   67  36  31 E5        30.32F

$$

ANZ530>537-182200-
MARINE OBSERVATIONS

STATION/POSITION TIME  TEMP    WIND        PRES
                       AIR SEA DIR/SP/G
                 (UTC) (F)     (DEG/KT/KT) (MB)
THOMAS PT LIGHT  2100   66 67  170/ 11/ 12   N/A
BALT KEY BRIDGE  2042   69     190/  7/  9 1025.7F
COVE POINT       2042   65     180/  9/ 10 1027.4F
LEWISETTA        2042   65 66  120/  6/  7 1026.7F
SOLOMONS ISLAND  2042   67 70  170/  8/ 10 1026.3F
PINEY POINT      2042          160/  7/  8   N/A

$$




USA.gov is the U.S. government's official web portal to all federal, state and local government web resources and services.